Time,TemperatureF,DewpointF,PressureIn,WindDirection,WindDirectionDegrees,WindSpeedMPH,WindSpeedGustMPH,Humidity,HourlyPrecipIn,Conditions,Clouds,dailyrainin,SoftwareType,DateUTC
2013-08-16 00:13:00,63.0,62.0,29.23,North,0,0.0,0.0,95,0.00,,,0.00,,2013-08-16 04:13:00,
2013-08-16 00:23:00,62.0,61.0,29.23,North,0,0.0,0.0,95,0.00,,,0.00,,2013-08-16 04:23:00,
2013-08-16 00:42:00,62.0,61.0,29.23,North,0,0.0,0.0,96,0.00,,,0.00,,2013-08-16 04:42:00,
2013-08-16 00:53:00,62.0,61.0,29.23,North,0,0.0,0.0,96,0.00,,,0.00,,2013-08-16 04:53:00,
2013-08-16 01:12:00,61.0,60.0,29.23,North,0,0.0,0.0,97,0.00,,,0.00,,2013-08-16 05:12:00,
2013-08-16 01:22:00,60.0,59.0,29.23,North,0,0.0,3.0,97,0.00,,,0.00,,2013-08-16 05:22:00,
2013-08-16 01:32:00,60.0,59.0,29.23,North,0,0.0,3.0,97,0.00,,,0.00,,2013-08-16 05:32:00,
2013-08-16 01:42:00,60.0,59.0,29.23,North,0,0.0,3.0,97,0.00,,,0.00,,2013-08-16 05:42:00,
2013-08-16 03:00:00,60.0,59.0,29.23,North,0,0.0,0.0,97,0.00,,,0.00,,2013-08-16 07:00:00,
2013-08-16 03:11:00,60.0,59.0,29.21,North,0,0.0,0.0,97,0.00,,,0.00,,2013-08-16 07:11:00,
2013-08-16 03:21:00,60.0,59.0,29.21,North,0,0.0,0.0,97,0.00,,,0.00,,2013-08-16 07:21:00,
2013-08-16 03:42:00,60.0,59.0,29.21,North,0,0.0,0.0,97,0.00,,,0.00,,2013-08-16 07:42:00,
2013-08-16 03:52:00,60.0,59.0,29.21,North,0,0.0,0.0,97,0.00,,,0.00,,2013-08-16 07:52:00,
2013-08-16 04:11:00,59.0,58.0,29.21,North,0,0.0,0.0,97,0.00,,,0.00,,2013-08-16 08:11:00,
2013-08-16 04:21:00,59.0,58.0,29.21,North,0,0.0,0.0,97,0.00,,,0.00,,2013-08-16 08:21:00,
2013-08-16 04:32:00,59.0,58.0,29.21,North,0,0.0,0.0,97,0.00,,,0.00,,2013-08-16 08:32:00,
2013-08-16 04:42:00,59.0,58.0,29.21,North,0,0.0,0.0,97,0.00,,,0.00,,2013-08-16 08:42:00,
2013-08-16 04:52:00,59.0,58.0,29.21,North,0,0.0,0.0,97,0.00,,,0.00,,2013-08-16 08:52:00,
2013-08-16 05:11:00,58.0,57.0,29.21,North,0,0.0,0.0,97,0.00,,,0.00,,2013-08-16 09:11:00,
2013-08-16 05:21:00,58.0,57.0,29.23,North,0,0.0,0.0,97,0.00,,,0.00,,2013-08-16 09:21:00,
2013-08-16 05:42:00,58.0,57.0,29.23,North,0,0.0,0.0,97,0.00,,,0.00,,2013-08-16 09:42:00,
2013-08-16 05:53:00,58.0,57.0,29.23,North,0,0.0,0.0,97,0.00,,,0.00,,2013-08-16 09:53:00,
2013-08-16 06:13:00,58.0,57.0,29.23,North,0,0.0,0.0,97,0.00,,,0.00,,2013-08-16 10:13:00,
2013-08-16 06:23:00,58.0,57.0,29.23,North,0,0.0,0.0,97,0.00,,,0.00,,2013-08-16 10:23:00,
2013-08-16 06:42:00,58.0,57.0,29.23,North,0,0.0,0.0,97,0.00,,,0.00,,2013-08-16 10:42:00,
2013-08-16 06:52:00,59.0,58.0,29.23,North,0,0.0,0.0,97,0.00,,,0.00,,2013-08-16 10:52:00,
2013-08-16 07:12:00,59.0,58.0,29.23,North,0,0.0,0.0,97,0.00,,,0.00,,2013-08-16 11:12:00,
2013-08-16 07:22:00,59.0,58.0,29.23,North,0,0.0,0.0,97,0.00,,,0.00,,2013-08-16 11:22:00,
2013-08-16 07:32:00,59.0,58.0,29.23,North,0,0.0,0.0,97,0.00,,,0.00,,2013-08-16 11:32:00,
2013-08-16 07:42:00,59.0,58.0,29.23,North,0,0.0,0.0,97,0.00,,,0.00,,2013-08-16 11:42:00,
2013-08-16 07:52:00,60.0,59.0,29.23,North,0,0.0,0.0,97,0.00,,,0.00,,2013-08-16 11:52:00,
2013-08-16 08:12:00,60.0,59.0,29.23,North,0,0.0,0.0,97,0.00,,,0.00,,2013-08-16 12:12:00,
2013-08-16 08:21:00,60.0,59.0,29.23,North,0,0.0,0.0,97,0.00,,,0.00,,2013-08-16 12:21:00,
2013-08-16 08:42:00,61.0,60.0,29.23,North,0,0.0,0.0,97,0.00,,,0.00,,2013-08-16 12:42:00,
2013-08-16 08:52:00,62.0,61.0,29.23,North,0,0.0,0.0,97,0.00,,,0.00,,2013-08-16 12:52:00,
2013-08-16 09:11:00,63.0,62.0,29.23,North,0,0.0,0.0,97,0.00,,,0.00,,2013-08-16 13:11:00,
2013-08-16 09:22:00,64.0,63.0,29.23,North,0,0.0,0.0,97,0.00,,,0.00,,2013-08-16 13:22:00,
2013-08-16 09:42:00,65.0,64.0,29.23,North,0,0.0,0.0,97,0.00,,,0.00,,2013-08-16 13:42:00,
2013-08-16 09:53:00,65.0,64.0,29.23,North,0,0.0,0.0,97,0.00,,,0.00,,2013-08-16 13:53:00,
2013-08-16 10:11:00,67.0,57.0,29.26,North,0,0.0,0.0,70,0.00,,,0.00,,2013-08-16 14:11:00,
2013-08-16 10:22:00,68.0,58.0,29.26,North,0,0.0,0.0,70,0.00,,,0.00,,2013-08-16 14:22:00,
2013-08-16 10:42:00,68.0,58.0,29.26,North,0,0.0,0.0,70,0.00,,,0.00,,2013-08-16 14:42:00,
2013-08-16 10:52:00,69.0,58.0,29.26,North,0,0.0,0.0,67,0.00,,,0.00,,2013-08-16 14:52:00,
2013-08-16 11:01:00,69.0,58.0,29.26,North,0,0.0,0.0,67,0.00,,,0.00,,2013-08-16 15:01:00,
2013-08-16 11:12:00,69.0,58.0,29.26,North,0,0.0,0.0,67,0.00,,,0.00,,2013-08-16 15:12:00,
2013-08-16 11:22:00,69.0,58.0,29.26,North,0,0.0,0.0,67,0.00,,,0.00,,2013-08-16 15:22:00,
2013-08-16 11:43:00,72.0,52.0,29.26,NW,304,4.0,6.0,50,0.00,,,0.00,,2013-08-16 15:43:00,
2013-08-16 11:56:00,74.0,54.0,29.26,North,0,0.0,6.0,49,0.00,,,0.00,,2013-08-16 15:56:00,
2013-08-16 12:05:00,74.0,54.0,29.26,North,0,0.0,6.0,49,0.00,,,0.00,,2013-08-16 16:05:00,
2013-08-16 12:13:00,74.0,54.0,29.26,North,0,0.0,6.0,49,0.00,,,0.00,,2013-08-16 16:13:00,
2013-08-16 12:23:00,75.0,53.0,29.26,NNW,332,4.0,7.0,46,0.00,,,0.00,,2013-08-16 16:23:00,
2013-08-16 13:28:00,74.0,56.0,29.26,North,3,3.0,5.0,54,0.00,,,0.00,,2013-08-16 17:28:00,
2013-08-16 13:34:00,74.0,56.0,29.26,North,3,3.0,5.0,54,0.00,,,0.00,,2013-08-16 17:34:00,
2013-08-16 13:47:00,74.0,56.0,29.26,North,3,3.0,5.0,54,0.00,,,0.00,,2013-08-16 17:47:00,
2013-08-16 14:00:00,76.0,56.0,29.26,NE,50,3.0,6.0,50,0.00,,,0.00,,2013-08-16 18:00:00,
2013-08-16 14:15:00,76.0,59.0,29.26,ENE,58,4.0,9.0,56,0.00,,,0.00,,2013-08-16 18:15:00,
2013-08-16 14:50:00,-999.0,-99.9,29.26,ENE,58,6.0,8.0,55,0.00,,,0.00,,2013-08-16 18:50:00,
2013-08-16 15:46:00,76.0,59.0,29.23,NE,43,4.0,6.0,56,0.00,,,0.00,,2013-08-16 19:46:00,
2013-08-16 15:55:00,76.0,59.0,29.23,NE,43,4.0,6.0,56,0.00,,,0.00,,2013-08-16 19:55:00,
2013-08-16 16:52:00,78.0,59.0,29.21,ENE,69,5.0,7.0,53,0.00,,,0.00,,2013-08-16 20:52:00,
2013-08-16 17:11:00,77.0,60.0,29.21,NNE,32,6.0,7.0,55,0.00,,,0.00,,2013-08-16 21:11:00,
2013-08-16 17:25:00,76.0,60.0,29.21,NE,47,3.0,7.0,57,0.00,,,0.00,,2013-08-16 21:25:00,
2013-08-16 17:40:00,-999.0,-99.9,29.21,ENE,65,5.0,7.0,-999,0.00,,,0.00,,2013-08-16 21:40:00,
2013-08-16 17:41:00,74.0,60.0,29.21,ENE,66,4.0,6.0,61,0.00,,,0.00,,2013-08-16 21:41:00,
2013-08-16 17:53:00,75.0,60.0,29.21,ENE,67,4.0,7.0,60,0.00,,,0.00,,2013-08-16 21:53:00,
2013-08-16 18:13:00,74.0,60.0,29.21,ENE,66,4.0,6.0,61,0.00,,,0.00,,2013-08-16 22:13:00,
2013-08-16 18:24:00,74.0,60.0,29.21,ENE,66,4.0,6.0,61,0.00,,,0.00,,2013-08-16 22:24:00,
2013-08-16 18:34:00,74.0,60.0,29.21,ENE,66,4.0,6.0,61,0.00,,,0.00,,2013-08-16 22:34:00,
2013-08-16 18:52:00,73.0,60.0,29.21,ENE,63,4.0,5.0,63,0.00,,,0.00,,2013-08-16 22:52:00,
2013-08-16 19:12:00,72.0,59.0,29.21,ENE,62,4.0,5.0,64,0.00,,,0.00,,2013-08-16 23:12:00,
2013-08-16 19:23:00,72.0,60.0,29.21,North,0,0.0,6.0,65,0.00,,,0.00,,2013-08-16 23:23:00,
2013-08-16 19:42:00,72.0,61.0,29.23,ENE,74,4.0,6.0,68,0.00,,,0.00,,2013-08-16 23:42:00,
2013-08-16 19:52:00,71.0,61.0,29.23,North,0,0.0,4.0,70,0.00,,,0.00,,2013-08-16 23:52:00,
2013-08-16 20:12:00,69.0,60.0,29.23,North,0,0.0,0.0,74,0.00,,,0.00,,2013-08-17 00:12:00,
2013-08-16 20:21:00,69.0,60.0,29.23,North,0,0.0,0.0,74,0.00,,,0.00,,2013-08-17 00:21:00,
2013-08-16 20:33:00,69.0,60.0,29.23,North,0,0.0,0.0,74,0.00,,,0.00,,2013-08-17 00:33:00,
2013-08-16 20:42:00,69.0,60.0,29.23,North,0,0.0,0.0,74,0.00,,,0.00,,2013-08-17 00:42:00,
2013-08-16 20:52:00,68.0,61.0,29.23,North,0,0.0,4.0,79,0.00,,,0.00,,2013-08-17 00:52:00,
2013-08-16 21:01:00,68.0,61.0,29.23,North,0,0.0,4.0,79,0.00,,,0.00,,2013-08-17 01:01:00,
2013-08-16 21:11:00,68.0,61.0,29.23,North,0,0.0,4.0,79,0.00,,,0.00,,2013-08-17 01:11:00,
2013-08-16 21:21:00,67.0,62.0,29.23,North,0,0.0,0.0,83,0.00,,,0.00,,2013-08-17 01:21:00,
2013-08-16 21:42:00,67.0,62.0,29.23,North,0,0.0,0.0,85,0.00,,,0.00,,2013-08-17 01:42:00,
2013-08-16 21:52:00,67.0,62.0,29.23,North,0,0.0,0.0,85,0.00,,,0.00,,2013-08-17 01:52:00,
2013-08-16 22:02:00,67.0,62.0,29.23,North,0,0.0,0.0,85,0.00,,,0.00,,2013-08-17 02:02:00,
2013-08-16 22:21:00,66.0,62.0,29.26,North,0,0.0,4.0,86,0.00,,,0.00,,2013-08-17 02:21:00,
2013-08-16 22:42:00,66.0,62.0,29.26,North,0,0.0,0.0,86,0.00,,,0.00,,2013-08-17 02:42:00,
2013-08-16 22:52:00,66.0,62.0,29.26,North,0,0.0,4.0,86,0.00,,,0.00,,2013-08-17 02:52:00,
2013-08-16 23:11:00,66.0,62.0,29.26,North,0,0.0,0.0,86,0.00,,,0.00,,2013-08-17 03:11:00,
2013-08-16 23:22:00,66.0,62.0,29.26,North,0,0.0,0.0,86,0.00,,,0.00,,2013-08-17 03:22:00,
2013-08-16 23:43:00,65.0,62.0,29.26,North,0,0.0,0.0,91,0.00,,,0.00,,2013-08-17 03:43:00,
2013-08-16 23:53:00,65.0,62.0,29.26,North,0,0.0,0.0,91,0.00,,,0.00,,2013-08-17 03:53:00,